Theta_e
313 313 313 313 313 313 313 314 313 310 308 307 307 306 306 306 305 306 306 307 308 308 308 308 308 308 308 307 307 308 308 310 311 311 315 314 311 312 313 314 314 314 314 313 313 313 313 313 312 313 314 314 313 315 314 313 313 316 320 318 314 316 316 317 318 315 315 316 314 311 311 314 314 311 310 311 311 313 312 312 313 311 311 311 311 310 312 323
313 312 312 313 313 313 313 313 313 311 308 306 306 305 306 306 305 306 306 307 307 308 308 308 308 308 307 307 308 307 309 312 311 313 316 313 311 313 313 314 314 314 313 313 313 313 314 313 313 312 314 314 313 315 316 313 314 317 320 316 315 319 317 315 316 314 314 315 314 312 311 312 314 313 311 313 314 313 313 314 313 312 313 312 311 311 314 323
311 311 312 312 312 312 312 312 312 312 309 307 306 305 305 305 305 306 306 307 307 307 308 308 308 307 307 307 308 308 310 313 311 314 315 312 311 313 313 314 314 314 314 314 313 313 313 312 312 313 314 314 312 314 316 314 314 314 316 315 316 318 315 312 313 313 311 312 314 312 310 311 312 312 312 313 315 313 314 315 314 314 315 313 313 313 315 322
310 311 311 311 311 311 312 312 313 313 312 309 306 306 305 305 305 305 306 307 307 307 307 308 308 307 307 307 308 309 310 312 311 314 315 312 312 313 312 313 313 314 314 314 313 313 313 312 312 313 315 315 313 314 314 313 314 314 314 316 315 313 315 312 310 311 309 309 313 312 310 311 311 310 312 314 314 315 315 315 315 315 315 315 314 315 318 322
310 311 311 310 310 311 312 312 313 313 313 311 308 306 306 305 305 305 306 306 307 307 307 307 307 307 307 307 308 309 310 311 310 313 314 312 312 312 312 313 313 314 313 314 314 312 312 312 314 315 315 314 314 314 313 311 312 314 313 313 311 311 315 312 308 309 308 308 311 312 312 312 311 310 312 313 314 315 315 315 315 314 314 314 315 317 319 322
311 311 310 310 310 311 311 311 312 312 313 313 310 307 306 305 305 305 305 306 306 307 307 307 307 307 307 308 308 309 312 311 310 312 313 312 312 312 312 313 314 314 313 314 313 312 313 313 314 315 314 314 314 314 313 309 310 315 313 310 309 310 313 310 308 309 307 310 312 312 312 311 311 313 311 311 314 314 312 311 312 312 311 311 315 317 318 321
311 311 310 309 309 310 309 310 310 311 312 312 311 309 308 305 305 305 305 306 306 307 306 306 307 307 307 308 309 311 313 312 311 313 312 312 312 312 312 314 315 315 314 314 313 314 314 313 314 314 314 313 313 313 312 310 310 315 315 311 309 308 310 309 307 307 306 310 311 310 311 311 312 313 309 310 314 313 311 309 310 310 308 309 314 316 318 322
310 310 309 309 308 309 309 309 309 310 311 310 310 310 308 306 305 305 305 306 306 307 306 306 306 307 308 309 310 312 312 313 313 313 312 312 312 312 313 313 315 315 314 313 312 314 314 314 313 313 314 313 313 313 311 312 313 315 314 312 310 309 309 307 305 306 306 308 308 309 311 312 311 310 309 311 313 312 312 311 310 310 308 309 312 315 318 321
310 309 309 308 307 307 308 308 309 310 310 310 309 309 308 307 306 305 306 305 305 307 307 307 307 307 308 309 312 311 310 314 315 313 312 312 312 312 312 314 315 314 314 313 312 313 314 314 313 312 314 312 313 313 311 313 314 314 313 312 311 311 309 307 307 307 308 308 308 311 313 311 309 308 311 313 314 313 311 311 311 310 310 311 312 314 318 320
311 310 309 308 307 308 308 308 309 310 310 310 309 308 308 307 306 306 306 305 305 306 307 308 308 309 308 309 312 309 311 317 316 313 312 312 312 312 313 315 315 314 313 313 312 313 313 314 313 312 314 312 312 312 311 313 313 311 311 312 312 311 309 308 310 309 309 309 309 312 313 311 309 309 314 315 312 310 310 310 310 310 311 312 312 313 316 318
312 311 310 309 309 309 308 309 309 309 308 308 308 308 308 307 307 306 306 306 305 306 307 307 308 310 308 309 310 309 313 317 315 313 312 312 313 312 314 315 315 314 313 314 313 311 312 312 311 312 314 313 313 312 311 311 311 310 311 314 313 312 311 310 312 311 311 311 309 312 313 311 310 310 315 315 308 308 311 312 311 311 312 313 313 312 314 315
312 311 311 311 310 309 309 310 310 309 307 307 308 308 307 307 306 306 306 307 306 306 307 308 309 309 309 309 309 312 316 316 314 313 312 312 313 313 315 316 315 315 314 314 313 311 311 311 312 313 313 313 313 313 312 309 309 310 312 315 315 314 314 312 312 310 311 313 309 311 313 313 313 313 315 313 308 308 310 312 312 312 313 313 313 311 313 314
312 312 311 311 311 310 309 310 311 310 307 306 307 307 307 306 306 306 306 307 307 307 307 309 310 308 309 309 310 314 317 315 313 313 312 312 313 314 315 315 315 314 314 314 313 312 312 312 313 313 312 313 314 312 311 310 310 313 313 315 316 316 315 313 311 310 312 312 308 311 313 315 317 315 315 311 308 310 311 313 313 312 313 312 312 311 312 314
313 312 312 311 311 311 310 311 311 310 308 307 307 307 307 306 306 306 306 307 307 307 308 309 309 308 309 309 310 314 316 314 313 312 312 313 313 314 314 314 315 314 314 314 312 312 312 312 313 313 311 312 312 310 312 312 312 314 313 314 316 314 314 313 310 311 314 311 308 312 313 315 318 316 314 309 307 310 311 313 313 313 312 311 312 311 312 313
313 313 312 312 311 311 312 312 311 309 308 307 307 307 306 306 307 306 307 307 307 308 308 309 309 309 309 308 310 313 314 314 314 312 312 313 313 314 313 313 314 314 314 314 312 312 312 313 314 313 311 309 311 313 315 315 314 314 312 314 316 313 314 315 310 310 314 311 309 313 314 315 317 316 312 306 306 309 311 313 313 313 312 311 311 311 311 312
314 313 312 312 311 311 312 312 311 310 309 307 307 307 307 308 307 307 308 308 308 309 309 310 309 309 309 309 310 312 313 315 314 313 312 312 313 314 313 313 314 314 314 313 313 313 313 313 312 311 312 311 314 316 316 315 314 315 313 313 315 314 314 314 310 308 310 311 311 313 314 316 316 315 311 306 307 309 310 313 313 313 312 311 311 310 311 311
315 314 313 313 311 311 311 311 312 311 309 308 308 308 308 309 308 308 310 310 310 310 310 310 308 308 308 309 310 310 312 315 314 313 313 312 313 314 314 313 312 313 313 314 314 314 314 313 311 311 313 313 315 316 314 311 312 314 314 314 314 314 312 312 312 309 308 311 313 313 313 315 316 315 313 311 309 309 311 313 313 314 313 312 311 310 310 311
315 314 314 314 313 312 312 311 311 311 310 308 309 310 310 310 310 310 311 310 309 308 309 309 307 308 308 307 310 311 312 314 313 313 313 312 313 314 315 313 312 313 315 315 314 314 314 313 313 315 316 314 315 316 312 310 311 312 314 313 313 313 312 313 314 311 309 311 313 314 314 315 315 316 315 314 312 310 311 312 313 313 313 312 312 311 311 311
317 316 315 314 314 313 313 312 311 311 310 309 311 311 310 310 311 311 311 309 308 307 309 309 308 310 310 309 311 313 313 313 313 313 312 312 312 313 314 313 314 315 314 315 315 314 315 316 315 316 316 315 316 315 312 312 313 313 315 314 312 312 312 314 314 310 310 312 314 314 315 315 315 316 316 315 314 311 311 312 312 312 312 312 312 312 312 311
319 317 316 315 315 314 313 313 311 311 310 310 313 310 308 310 311 310 311 310 308 308 311 310 308 311 311 310 313 313 313 313 313 313 312 311 313 313 313 313 316 316 313 316 316 312 313 316 316 316 316 316 316 315 312 312 313 315 316 314 315 314 312 314 314 309 308 312 315 315 315 315 315 316 316 315 314 311 311 311 312 312 312 313 313 313 313 313
320 319 318 316 315 315 314 313 312 312 311 312 313 308 306 309 309 308 310 310 309 307 311 311 309 311 311 310 312 312 313 314 314 314 312 312 312 313 312 313 315 314 313 316 315 311 313 315 316 316 314 313 314 312 311 312 313 314 314 314 315 315 313 314 313 309 308 311 315 315 314 315 315 315 315 315 314 313 313 313 313 314 314 314 314 314 314 314
321 320 319 317 316 316 314 314 313 312 311 312 311 308 308 309 307 308 309 310 311 307 310 311 309 311 311 310 312 312 313 314 314 314 313 311 312 313 312 313 313 314 313 314 313 314 315 315 315 314 311 310 311 310 311 313 314 314 315 315 314 315 314 313 311 309 309 311 315 314 314 314 314 315 315 315 315 314 315 314 315 315 315 315 314 315 315 314
322 321 320 318 317 316 314 314 314 312 311 311 311 309 310 309 308 309 309 309 311 308 310 311 310 311 311 310 312 312 313 313 313 315 313 311 312 312 313 313 313 314 313 313 313 314 314 314 313 311 310 311 311 310 311 313 313 315 316 314 314 316 315 310 311 310 309 310 313 313 313 314 314 314 315 315 315 315 314 314 314 314 314 314 315 315 315 315
323 322 321 320 318 316 315 314 314 313 311 311 311 310 311 311 309 310 311 309 309 309 310 310 310 312 312 310 312 313 313 312 312 314 313 312 312 312 313 313 312 313 313 313 313 314 313 311 309 309 311 313 312 311 312 314 314 316 316 315 315 317 315 311 312 312 311 311 310 312 314 315 316 316 316 316 314 313 313 313 313 314 313 313 313 314 314 314
323 322 322 320 318 317 315 315 315 313 312 311 311 310 312 312 311 311 311 310 310 310 309 309 310 312 310 310 312 312 312 312 312 313 313 312 311 311 311 310 311 313 313 313 312 313 313 310 308 310 311 313 313 312 314 315 314 315 316 316 315 314 314 314 314 314 313 313 312 312 312 313 316 316 317 317 315 315 315 315 315 315 315 314 313 313 313 313
322 322 322 321 318 316 316 317 315 313 313 312 309 309 313 313 312 312 311 311 312 311 310 309 311 311 309 311 313 311 310 310 310 311 312 312 311 310 311 310 310 312 313 312 312 313 312 309 311 314 312 314 315 313 315 315 314 314 315 315 314 314 315 315 315 315 313 313 313 312 312 313 315 314 315 317 316 316 316 316 316 316 316 316 315 314 314 313
322 322 322 321 318 317 318 318 316 314 315 314 309 309 312 313 312 312 311 313 313 314 312 309 309 309 309 311 311 309 309 310 310 310 311 311 310 310 311 312 310 310 311 311 312 312 312 310 312 314 314 315 314 314 315 315 313 315 315 314 313 314 316 316 316 315 315 315 314 313 315 315 315 315 315 316 316 316 316 316 316 317 317 317 316 315 315 313
321 321 322 321 318 318 319 318 316 314 316 315 309 308 312 313 312 312 311 314 315 315 313 308 307 308 309 309 309 308 308 310 312 312 309 309 310 310 311 312 311 312 310 311 313 312 312 315 314 314 315 314 315 317 315 313 314 315 312 311 312 314 316 316 316 316 316 315 315 316 316 314 314 316 316 316 316 316 317 317 318 319 319 317 316 314 313 312
321 321 321 321 319 318 318 317 316 316 316 314 309 309 312 312 313 314 314 315 316 314 311 310 309 309 309 309 308 308 308 310 313 312 309 309 310 310 310 311 311 313 310 310 314 313 311 312 312 313 314 314 315 314 312 314 315 312 309 311 312 314 314 315 316 316 315 315 316 318 316 311 312 315 315 314 316 318 319 318 318 319 319 317 315 313 311 310
319 320 320 320 319 317 317 316 317 316 315 312 309 309 312 313 316 319 318 319 319 315 310 310 310 310 310 309 308 309 309 311 311 310 310 310 310 309 308 309 310 313 312 311 314 312 308 306 309 313 313 313 312 308 309 315 314 311 313 315 315 314 314 315 315 315 316 316 316 318 317 312 311 314 316 315 316 319 320 318 317 319 320 318 313 311 310 308
318 319 319 319 318 317 316 316 317 317 314 311 310 312 314 316 318 322 322 319 318 315 311 310 311 310 310 310 310 309 310 311 311 312 312 311 311 310 309 310 311 313 314 313 314 313 310 309 311 313 311 310 312 310 309 310 310 312 317 318 316 314 315 316 316 315 316 316 315 315 316 315 312 313 316 316 315 315 317 318 318 320 322 320 314 310 309 307
316 318 318 318 318 317 317 317 317 317 313 310 312 317 321 320 320 324 323 317 316 317 314 313 312 310 311 312 312 310 311 312 312 313 314 313 313 312 311 313 313 313 313 314 315 314 313 314 313 312 309 310 315 314 311 310 310 314 317 316 315 314 314 316 317 317 317 316 313 311 314 315 314 314 315 315 315 314 314 316 317 319 321 320 316 311 308 308
314 316 317 318 318 317 317 317 317 317 312 311 315 319 322 322 322 324 322 319 319 317 313 313 312 311 311 312 312 311 312 313 312 312 313 314 314 314 314 315 314 315 313 313 315 313 313 315 314 313 311 311 314 315 314 313 313 314 316 315 315 314 315 316 315 313 313 314 311 308 313 316 315 315 315 315 315 315 315 315 316 317 317 318 317 312 309 309
313 314 316 317 317 317 317 316 317 317 311 312 317 319 320 322 323 324 323 322 321 315 312 313 312 311 311 312 313 311 311 312 312 313 313 314 315 315 315 314 313 314 313 313 314 313 313 314 313 314 314 313 314 315 317 317 314 315 317 316 315 314 315 314 313 312 312 314 311 308 313 317 316 315 315 314 315 317 316 316 315 314 314 315 314 312 309 308
312 313 314 316 316 317 316 315 317 316 312 314 318 319 320 322 322 323 323 323 321 315 312 312 312 312 312 313 313 311 310 312 312 313 314 314 315 315 315 314 312 313 313 312 312 313 314 313 313 314 314 313 314 316 318 317 315 315 315 315 315 315 312 311 312 312 311 313 313 311 314 316 316 316 315 314 315 316 315 315 314 314 314 315 315 315 312 308
312 313 313 315 316 316 316 316 316 314 313 315 317 317 320 321 322 324 324 322 320 316 312 312 313 314 314 313 313 311 311 313 313 314 314 314 315 315 315 315 313 312 312 312 313 313 312 313 313 312 312 312 314 316 316 316 314 313 314 315 314 314 313 312 312 310 310 312 313 314 314 313 313 314 314 314 316 316 313 312 312 314 315 315 318 318 314 311
312 314 314 314 315 316 316 316 315 313 314 316 316 317 318 319 321 324 323 320 316 314 315 316 316 315 315 315 314 313 312 313 313 314 315 314 314 315 315 315 314 312 311 311 313 314 313 313 312 311 313 311 310 313 315 315 315 313 315 315 313 313 313 312 312 313 313 314 315 315 315 313 313 314 315 314 315 314 313 313 313 314 316 316 317 317 314 313
312 313 314 314 313 314 316 315 314 313 314 315 316 316 316 317 318 320 321 319 316 314 316 319 318 317 316 316 315 313 313 314 314 314 314 314 314 315 315 314 314 312 312 311 312 313 312 312 314 311 312 311 308 312 314 313 313 312 314 315 314 315 315 313 313 314 315 315 316 316 315 313 314 315 315 315 316 315 315 315 314 314 315 316 316 316 314 314
312 313 313 313 312 312 315 315 313 313 315 315 315 315 315 315 316 318 320 319 319 320 320 320 319 317 316 316 316 314 313 314 315 313 314 314 314 315 314 314 315 313 312 311 311 312 312 312 314 310 309 312 311 313 314 314 312 311 312 313 313 314 316 315 314 313 314 315 315 316 315 315 316 316 315 316 317 317 317 317 317 316 315 315 316 317 316 315
311 313 313 312 312 312 313 314 313 314 316 316 315 314 315 315 315 318 320 318 319 322 322 322 323 321 319 317 315 314 314 315 315 314 315 314 313 315 313 313 315 313 312 312 311 313 312 311 313 312 309 312 314 314 315 315 314 312 313 314 313 313 314 314 314 313 313 315 314 316 317 316 316 318 317 316 317 317 317 318 319 318 316 315 316 317 317 316
311 313 313 312 312 313 313 313 313 314 316 317 315 314 314 315 315 316 318 317 318 321 320 322 324 322 321 320 317 315 315 315 315 314 315 314 314 315 314 312 314 313 312 312 312 313 313 311 313 314 312 313 316 316 316 317 317 314 314 315 315 315 314 315 316 314 312 315 315 316 318 316 318 320 317 315 318 318 317 317 318 319 318 317 314 312 313 315
310 312 312 312 313 313 313 314 314 314 316 317 317 315 315 315 315 316 317 317 318 320 319 320 322 322 322 322 321 319 317 316 316 315 315 315 314 315 315 313 313 312 312 313 313 314 316 314 313 316 317 316 315 311 309 314 318 316 314 315 315 316 315 316 318 316 314 315 315 315 317 317 320 321 317 316 318 317 314 314 317 318 315 316 314 310 309 310
309 311 312 312 313 313 314 315 315 315 315 316 317 316 315 315 316 316 316 317 317 319 319 319 320 321 322 321 321 322 319 319 319 317 316 316 314 315 317 315 313 313 313 314 314 314 316 315 313 315 318 317 313 310 308 311 314 314 314 314 314 315 316 316 317 317 317 317 316 316 317 318 319 318 315 315 316 314 311 310 315 316 315 315 314 311 310 309
309 310 312 312 313 313 314 315 316 316 315 315 316 316 314 315 315 315 316 316 317 318 318 318 320 321 321 321 321 321 319 319 320 318 318 318 316 315 318 317 314 313 313 315 315 313 314 316 315 315 316 317 315 314 313 312 312 313 315 314 314 316 317 317 316 315 317 320 320 319 320 319 318 315 313 315 316 316 313 310 311 315 316 317 316 312 310 310
309 310 311 311 311 312 314 315 314 315 315 315 316 316 315 315 315 315 316 316 316 317 317 318 319 320 320 320 319 319 318 319 320 319 318 320 319 316 316 316 314 312 317 321 320 316 315 317 316 315 317 318 318 318 318 316 314 313 315 316 315 316 316 316 315 315 318 320 321 320 319 319 317 315 314 314 315 315 314 313 312 311 313 316 318 315 312 311
308 309 309 310 309 309 311 313 312 313 314 314 315 315 315 316 315 314 315 316 316 316 317 319 319 319 319 319 319 318 317 318 320 319 318 319 321 318 313 313 314 314 319 323 321 317 317 317 315 316 317 318 319 321 320 318 316 315 317 317 316 316 316 316 316 317 318 319 320 319 319 320 318 317 316 315 315 316 316 316 314 313 314 316 315 313 313 312
307 308 308 309 309 308 309 310 311 313 313 313 315 314 314 315 315 314 315 315 315 316 317 318 318 318 319 318 319 319 318 317 318 318 317 318 321 318 312 311 312 312 315 318 317 316 316 315 316 317 317 317 319 321 319 318 318 317 317 317 316 316 317 317 317 318 318 319 319 319 319 321 319 317 317 316 315 316 316 316 315 315 317 316 313 313 315 312
307 308 308 308 309 308 308 309 310 311 312 313 313 313 313 314 315 315 315 315 315 316 317 317 317 317 318 318 319 319 319 319 318 317 317 317 319 318 314 313 312 311 312 314 315 317 317 316 318 319 317 316 317 319 318 318 318 317 316 317 317 316 316 317 317 317 317 319 319 319 320 321 319 317 317 317 316 316 316 316 316 314 315 315 315 317 320 317
305 306 306 307 308 308 308 309 309 309 310 312 313 312 312 313 314 314 314 315 316 315 316 317 317 317 317 318 319 319 319 320 319 318 317 317 318 317 317 317 312 308 310 313 314 316 317 317 318 318 317 317 317 318 318 317 316 317 317 317 317 316 316 316 316 316 317 318 318 318 320 320 319 318 317 317 318 317 316 317 315 314 317 319 318 318 320 320
304 305 305 305 306 307 307 309 309 308 308 310 311 311 312 313 313 314 314 314 316 316 315 316 316 317 317 318 319 319 319 319 319 319 318 318 318 317 317 320 315 308 309 312 313 313 315 317 317 315 316 318 318 319 319 317 316 317 317 316 316 317 316 316 317 317 317 318 317 318 319 319 318 318 317 318 319 317 316 316 315 315 319 321 320 319 318 318
303 303 304 305 306 306 306 307 309 308 307 308 308 309 311 312 312 313 313 313 314 315 315 315 315 316 316 317 317 317 317 318 318 318 318 317 318 317 317 319 319 312 309 310 312 313 313 315 316 315 317 319 319 319 319 317 317 317 317 317 316 316 316 316 316 316 317 318 318 319 319 319 317 317 318 318 317 315 315 315 315 316 318 318 318 318 317 317
301 301 302 305 306 306 306 306 307 308 308 308 308 309 310 310 311 312 313 312 312 313 314 314 315 315 315 316 316 316 316 316 316 317 318 317 317 317 318 318 319 316 312 310 311 312 311 313 316 316 318 320 319 319 319 318 319 319 318 317 316 316 317 316 316 316 316 317 318 318 318 317 316 317 317 317 316 315 315 315 315 316 317 316 316 317 317 317
Wind_Speed
5 4 3 3 3 3 3 3 3 3 4 4 5 6 6 6 7 7 7 7 6 6 5 4 2 1 0 0 0 1 1 0 3 5 4 4 6 7 6 6 5 4 3 2 4 6 3 2 3 5 4 4 3 1 1 2 2 2 2 3 3 3 3 5 8 5 0 2 8 7 8 9 6 5 3 2 4 2 2 5 4 3 5 3 2 4 8 15
5 4 3 3 3 3 3 2 2 3 3 4 3 4 5 6 6 7 7 7 7 6 5 4 3 2 1 1 1 1 1 2 5 5 4 6 7 7 6 6 5 5 3 2 4 6 3 2 3 3 2 2 1 1 1 1 2 1 1 3 3 3 2 2 5 5 1 1 7 7 5 5 4 5 5 5 5 4 6 6 5 6 8 7 5 5 10 14
5 4 4 4 3 2 2 2 2 2 2 3 3 4 5 5 6 7 7 7 7 6 5 4 3 2 1 1 1 1 1 4 4 3 4 7 8 7 6 5 5 5 3 2 4 4 4 5 5 3 2 2 2 0 1 2 2 0 1 4 2 1 1 1 2 3 2 2 5 8 4 2 1 3 4 5 4 4 9 8 6 8 10 10 9 9 11 14
5 5 5 4 3 2 2 2 2 2 1 2 3 4 5 5 6 6 7 7 6 6 5 4 3 2 1 0 0 1 2 4 3 1 4 7 8 7 6 6 5 4 3 2 4 5 5 6 5 2 2 3 2 1 1 3 1 1 1 2 2 1 1 2 2 2 2 2 3 6 5 4 2 2 4 5 5 6 10 10 9 10 8 9 11 11 13 15
6 6 5 4 3 3 2 2 2 2 1 1 2 3 4 5 6 7 7 7 6 6 5 4 3 2 1 0 0 0 2 3 2 2 5 7 7 7 6 6 5 4 2 2 3 4 5 4 3 2 2 2 1 1 1 3 1 2 1 2 3 1 1 3 1 1 0 1 2 5 5 4 4 3 5 6 9 6 3 4 7 8 1 6 11 13 13 14
6 5 5 4 3 3 3 3 2 2 1 0 1 2 3 4 5 6 7 7 6 6 5 4 3 2 2 1 0 1 2 2 1 2 6 7 7 6 6 6 5 4 2 1 3 3 3 2 1 2 2 2 1 1 2 2 2 0 1 1 1 1 2 2 1 2 2 2 5 5 3 4 4 5 3 7 13 4 4 2 2 3 3 4 9 13 13 14
6 5 4 4 3 3 3 3 3 3 2 2 2 2 2 4 4 4 5 6 6 6 6 4 4 3 3 2 2 1 1 1 1 4 8 8 7 6 6 6 5 4 2 2 3 2 2 2 3 2 2 3 1 2 2 0 1 1 3 3 1 1 2 2 1 2 2 2 2 2 2 4 6 5 2 6 15 6 3 2 2 3 1 2 7 12 14 14
5 5 4 3 3 4 2 2 3 3 2 2 3 2 2 3 4 4 4 5 5 6 6 5 4 4 3 4 2 2 2 2 1 6 8 7 6 5 5 5 4 3 2 3 3 2 2 2 4 3 2 3 2 3 1 1 1 1 4 4 2 1 1 2 1 2 1 1 1 1 4 3 2 1 1 10 14 6 2 1 0 1 1 5 7 11 12 13
4 3 4 4 3 4 3 2 2 2 1 2 2 3 3 4 4 4 4 4 4 5 5 5 5 4 4 3 2 2 2 1 4 8 8 7 6 5 4 4 3 2 3 5 3 2 2 2 3 4 3 4 2 3 1 2 2 2 4 4 4 2 1 2 2 2 1 1 2 4 4 0 1 1 6 13 8 1 2 2 1 2 4 7 7 9 11 11
2 1 3 3 2 2 2 1 1 0 1 2 2 3 3 4 4 4 5 5 4 4 5 5 4 4 4 3 2 3 2 1 6 9 8 8 7 5 4 4 4 4 5 6 5 2 1 3 4 3 5 5 2 2 2 1 2 3 4 4 4 3 2 1 2 3 1 2 2 5 2 0 1 2 7 5 1 2 3 4 2 3 7 8 6 7 8 10
1 1 2 3 2 2 1 1 0 0 1 1 1 2 3 4 4 4 5 5 5 5 4 4 5 4 3 3 3 3 3 3 6 8 8 8 6 5 5 5 5 5 6 6 5 4 4 7 7 3 2 3 3 3 2 1 2 2 3 4 4 2 3 1 2 2 1 2 1 2 1 2 2 4 8 2 3 0 3 5 4 6 7 7 6 5 6 8
1 0 2 3 3 1 1 0 0 0 1 1 1 1 3 3 3 4 5 6 6 6 5 5 5 3 3 2 1 3 5 4 7 8 8 8 7 6 6 6 5 4 5 5 5 6 9 9 7 3 2 3 4 3 3 2 0 2 2 3 3 1 3 1 1 1 2 1 1 1 3 6 7 12 9 4 2 1 1 6 5 7 7 5 5 5 6 8
3 2 2 3 3 2 1 1 1 1 1 1 1 2 2 2 3 4 5 6 6 6 6 5 5 4 3 1 2 5 6 5 7 8 8 9 8 8 8 7 7 6 6 7 7 7 7 5 4 6 3 2 3 1 4 3 1 2 1 1 1 3 3 2 2 1 1 1 0 2 5 6 10 14 6 5 2 1 3 8 6 7 6 5 5 5 7 8
4 4 3 3 3 1 1 1 1 1 2 1 1 3 2 2 3 4 5 6 6 7 6 6 6 4 2 1 3 5 5 5 7 10 10 11 11 11 10 9 9 9 10 11 11 9 7 7 9 9 2 2 3 3 4 3 1 1 0 0 0 2 2 3 2 1 3 2 0 3 6 6 6 7 2 4 1 3 8 9 7 7 5 5 5 6 8 9
4 5 5 3 2 1 1 1 1 2 2 1 2 3 2 3 4 4 5 6 7 7 6 6 5 4 2 1 3 4 5 6 8 11 11 12 12 10 9 11 12 12 13 14 13 10 8 7 6 5 2 1 3 4 3 2 2 2 1 2 1 2 1 3 2 0 1 2 1 4 5 6 7 3 4 3 1 3 8 10 8 8 7 6 6 7 8 8
5 5 5 4 3 2 0 1 1 1 1 1 2 3 4 4 4 5 6 6 7 7 5 5 4 3 2 2 3 4 4 5 8 10 11 11 9 9 12 13 12 11 12 12 11 9 8 7 3 1 2 1 3 4 3 2 1 1 2 1 2 2 1 1 2 1 2 1 3 6 5 4 4 2 3 1 1 2 6 9 9 8 7 7 6 7 7 8
6 6 5 4 3 2 1 2 1 1 1 1 3 4 4 5 6 7 7 8 7 6 4 3 3 2 1 2 3 3 3 5 8 9 10 10 9 13 13 9 7 8 9 8 6 4 6 6 1 1 2 1 1 2 2 2 3 1 1 1 1 2 2 1 2 2 1 1 4 7 8 10 8 4 2 3 4 2 6 9 11 9 7 6 6 7 8 8
5 6 5 5 4 3 3 4 3 1 0 2 4 5 6 7 7 8 9 9 8 6 4 2 2 2 2 3 3 2 4 6 8 9 8 10 11 13 10 5 5 5 5 4 3 3 3 2 1 1 2 1 2 4 4 1 2 3 3 2 1 2 4 4 1 2 2 2 5 7 9 15 15 11 11 8 5 5 10 11 12 11 9 8 7 8 9 8
5 5 5 5 5 3 3 5 5 2 0 2 6 8 8 7 6 6 6 5 4 3 2 2 3 2 1 3 2 4 6 7 9 7 8 11 12 10 8 7 6 4 3 2 1 2 1 1 1 2 4 5 6 6 3 2 3 4 3 2 1 3 4 3 1 1 1 3 7 10 11 15 16 13 14 12 5 6 11 11 11 10 10 9 8 9 9 10
6 6 6 5 5 4 4 4 6 3 0 3 7 7 5 5 3 3 2 2 2 1 1 1 2 1 2 2 4 8 8 7 4 4 8 11 11 10 6 4 3 3 2 2 2 2 2 2 4 5 4 5 7 4 4 5 4 4 3 2 2 3 5 1 3 2 0 4 8 9 11 16 16 14 15 13 5 6 11 12 13 12 10 9 10 11 11 12
7 7 6 5 4 4 4 3 5 3 1 3 6 3 1 3 1 1 2 2 1 1 2 2 2 1 2 3 7 8 4 3 2 2 9 9 8 8 2 1 4 4 1 0 2 1 2 4 7 6 1 3 4 5 6 5 3 3 3 2 1 3 6 0 4 1 2 3 7 5 8 15 15 15 15 12 9 11 13 14 15 14 12 10 11 14 13 10
9 8 7 5 5 5 4 3 3 4 3 3 6 3 3 2 2 3 2 2 1 1 1 2 1 0 2 2 6 5 1 2 3 3 7 6 4 4 3 3 6 4 2 3 3 2 3 6 7 3 6 7 5 5 5 3 3 1 1 1 2 2 4 2 4 2 3 4 6 4 7 13 14 16 17 16 13 14 15 15 15 13 12 12 13 13 12 10
11 10 9 7 6 6 5 3 4 5 4 4 5 4 2 3 5 4 2 1 1 1 1 2 2 3 2 1 6 6 2 3 4 4 7 6 2 1 5 6 5 4 4 7 6 5 4 4 3 6 8 7 5 4 5 3 2 3 2 3 3 1 2 3 1 3 4 3 5 6 9 11 12 15 18 17 12 12 15 15 14 12 14 16 15 12 11 12
12 12 11 10 7 7 5 4 4 5 4 6 9 7 4 6 7 4 2 1 1 1 1 3 2 3 4 2 7 8 2 1 3 5 10 9 4 2 4 5 4 4 6 8 7 7 3 1 2 6 7 7 6 5 7 5 3 3 5 6 4 3 4 3 3 2 4 3 2 6 10 8 9 12 14 8 3 9 12 11 12 13 15 15 14 13 13 14
14 13 14 12 10 9 7 4 4 5 4 6 10 9 6 7 6 3 2 1 2 1 0 3 2 5 6 5 8 7 1 1 2 3 10 9 5 4 3 2 2 6 7 5 4 6 3 3 5 6 5 5 6 6 7 6 4 3 6 9 9 7 4 1 3 5 4 2 1 3 7 5 4 7 9 3 2 10 8 6 12 13 11 11 11 13 12 12
15 15 16 15 13 13 8 4 4 5 4 5 8 10 10 8 6 4 2 1 3 2 2 4 3 6 8 6 7 5 1 3 0 3 9 8 3 3 3 2 0 2 6 5 2 4 1 3 4 5 6 6 5 4 5 6 4 3 2 6 9 5 1 2 0 2 4 3 1 1 5 7 3 7 10 7 8 14 10 8 13 13 10 8 9 10 9 9
16 16 17 18 18 17 8 3 6 5 2 4 7 13 12 8 6 3 1 2 4 3 4 2 1 5 8 5 6 6 2 2 4 4 4 4 3 1 2 5 2 1 4 4 2 2 4 5 3 4 6 6 5 4 5 8 6 1 1 1 5 5 4 4 3 3 3 5 2 4 3 7 7 7 9 9 10 15 13 11 14 13 10 9 8 8 7 7
15 16 18 20 22 20 10 5 9 8 3 3 9 16 13 9 5 1 2 3 3 3 4 1 2 4 4 3 3 2 1 1 4 3 1 2 2 1 2 8 7 6 6 5 5 1 3 6 7 8 6 5 5 1 5 11 5 1 1 1 4 4 3 4 2 3 1 5 5 5 6 6 7 3 3 4 7 11 12 11 12 10 7 6 5 5 4 3
13 16 18 21 23 21 15 9 8 7 4 4 11 17 13 7 4 1 1 4 1 3 2 2 4 3 3 4 2 2 2 2 1 1 1 2 1 2 2 5 5 6 4 4 4 1 1 2 4 6 6 4 3 4 1 8 3 2 5 5 6 5 4 3 1 1 1 5 5 7 9 6 7 3 5 2 5 8 8 7 8 7 5 3 2 2 2 2
11 15 19 22 25 25 19 13 11 8 4 7 14 17 12 4 3 4 3 4 2 2 2 2 3 3 9 9 2 1 1 2 1 2 2 1 2 3 0 1 3 4 2 3 2 1 1 1 1 2 2 2 5 6 3 1 4 7 7 5 6 4 3 2 0 1 2 6 3 8 12 7 6 3 6 4 2 3 4 4 5 4 3 0 2 2 1 1
9 11 18 25 29 29 19 11 17 14 5 11 17 15 9 1 0 6 5 1 0 2 3 2 1 6 13 12 5 3 2 2 2 5 4 3 2 2 3 3 2 3 1 4 3 1 1 1 1 1 1 3 6 6 5 4 4 4 3 3 3 2 1 1 1 2 5 7 1 3 6 6 7 5 3 2 2 2 4 4 5 5 3 2 3 1 0 1
8 8 14 25 30 30 21 12 18 17 8 14 16 7 3 2 2 6 4 2 1 4 5 3 2 7 10 6 3 6 4 2 4 6 5 4 5 7 7 7 7 4 5 7 4 2 2 3 2 2 0 3 5 7 5 2 1 2 3 5 4 3 2 4 3 3 6 5 1 1 2 4 10 8 5 8 8 8 7 6 7 7 6 2 4 3 1 1
9 8 11 23 29 30 25 14 14 18 16 19 13 2 1 4 5 8 7 4 1 1 3 4 3 6 9 6 4 5 3 2 6 5 2 3 5 7 6 4 4 3 3 6 5 3 3 1 3 4 2 3 7 7 5 4 5 7 7 7 6 5 4 5 3 1 5 3 3 4 3 5 9 6 10 16 15 11 7 7 9 8 9 7 3 4 2 2
8 9 9 19 28 29 26 17 13 19 21 18 8 3 5 6 5 8 11 5 1 2 2 4 6 6 7 4 3 6 3 2 6 5 3 5 5 7 6 5 6 2 2 3 4 6 7 4 6 10 5 7 11 7 4 5 7 7 4 3 5 5 4 5 3 2 4 2 2 4 3 5 5 1 4 10 9 7 6 7 7 7 10 9 3 4 4 3
7 9 7 13 21 25 26 21 15 20 23 14 5 5 7 7 4 6 8 3 1 1 3 3 8 8 6 2 0 4 2 1 5 4 4 7 6 7 8 8 10 6 3 4 3 4 6 5 4 4 2 10 12 4 3 6 4 3 1 1 5 4 2 1 1 0 1 3 2 4 4 6 3 3 4 5 4 5 6 6 6 9 12 9 7 6 5 4
8 9 8 11 14 20 24 21 18 24 21 9 4 6 6 7 4 2 4 3 2 5 7 4 4 6 6 3 2 5 1 1 6 5 4 5 4 6 7 6 10 11 9 7 2 3 3 3 2 2 1 6 5 1 3 2 3 4 3 4 3 1 1 1 1 2 2 5 5 4 6 6 3 6 8 7 7 7 5 5 8 11 11 10 9 4 4 4
8 8 9 11 13 18 22 21 23 25 16 6 6 6 4 4 3 2 2 2 4 8 9 5 4 6 7 5 5 7 4 2 5 6 5 4 4 7 8 4 6 13 14 7 1 2 3 1 1 2 2 2 2 1 3 3 1 4 5 6 3 2 1 2 4 1 3 7 5 3 8 7 4 5 2 4 7 10 9 9 11 11 10 10 9 2 3 5
7 5 6 11 16 17 19 23 25 19 7 4 7 6 3 3 3 3 2 2 4 7 7 6 6 6 7 7 6 8 8 5 7 7 5 5 5 8 11 5 5 14 16 7 2 1 2 3 1 1 1 2 1 2 3 2 1 1 1 3 2 2 4 4 5 4 5 6 4 3 6 6 7 7 3 6 9 11 12 11 11 12 12 11 7 3 4 5
6 4 4 11 18 18 19 25 23 11 3 4 6 5 4 4 3 3 3 2 2 4 7 7 5 5 6 6 5 8 9 8 9 9 6 6 5 6 12 9 6 12 15 11 5 1 3 5 3 1 2 1 3 5 7 5 2 2 0 2 1 3 3 4 3 2 4 5 4 4 5 6 8 7 7 11 12 11 12 10 10 12 12 9 5 4 6 5
4 3 2 9 18 21 22 23 14 4 3 5 4 3 4 4 3 3 4 4 2 1 4 4 3 3 4 3 2 5 7 6 8 8 6 8 6 4 9 10 5 5 11 13 8 2 3 5 4 2 1 3 5 7 9 10 8 6 6 7 5 2 0 2 2 1 2 4 3 3 6 9 5 5 8 12 10 11 11 9 8 8 8 6 4 4 6 6
4 3 2 8 19 24 23 14 6 3 3 4 4 5 5 4 4 4 3 3 3 0 1 3 3 3 2 2 2 3 4 5 7 7 5 7 8 5 5 8 8 8 7 9 9 6 5 4 4 4 4 6 5 1 3 6 7 8 8 10 10 8 5 4 4 2 1 3 3 2 7 11 4 3 6 8 6 5 6 6 7 6 5 4 2 4 6 6
3 5 2 8 22 27 18 6 3 4 3 4 4 4 5 4 4 6 4 3 3 1 1 2 4 5 5 5 5 3 3 3 5 6 4 5 8 5 1 2 7 11 9 5 7 6 3 2 4 4 4 4 0 3 2 2 1 1 3 5 7 8 8 8 6 4 3 2 1 1 6 10 3 3 2 3 1 1 2 4 5 4 3 3 2 4 4 4
4 5 1 10 27 27 12 5 7 5 5 4 3 3 5 4 4 6 6 6 4 3 3 2 3 5 6 6 6 5 4 3 4 6 4 3 5 3 1 3 6 9 7 3 3 3 3 1 5 4 2 1 2 2 1 2 1 3 3 2 4 8 10 6 2 3 5 5 3 3 6 10 3 2 1 1 2 3 2 4 5 4 3 3 4 3 3 3
3 3 1 11 30 27 10 6 8 8 9 7 4 5 6 4 5 8 8 9 6 4 5 4 3 4 3 2 3 5 6 5 4 6 5 3 3 1 2 6 9 8 6 2 3 6 5 4 5 5 4 3 2 3 3 2 3 4 4 5 8 11 9 1 1 2 4 8 11 8 8 10 2 3 2 1 1 5 3 3 5 5 4 3 3 4 2 3
3 3 1 6 19 17 7 4 5 8 13 11 10 11 9 4 6 10 11 10 7 5 6 6 6 6 3 3 2 2 4 5 5 5 4 4 2 2 1 4 9 8 4 2 2 4 5 4 6 8 8 8 7 5 4 5 5 3 5 8 11 13 11 5 2 5 7 10 13 9 9 13 5 3 3 4 2 4 4 3 4 4 5 4 2 3 3 2
3 4 3 3 5 5 4 3 3 7 12 12 10 11 13 9 5 5 9 10 9 9 7 4 6 7 5 5 5 3 5 6 4 2 3 3 1 1 1 0 2 3 2 5 5 3 1 1 6 11 11 12 10 4 1 6 9 8 10 10 11 12 14 9 4 7 10 9 10 11 14 19 14 5 5 5 3 4 5 4 3 4 5 5 3 3 3 3
3 4 5 4 2 4 5 4 4 5 8 11 8 7 13 14 6 4 7 8 9 10 7 4 6 8 8 10 10 8 8 8 6 4 6 5 3 2 1 2 1 4 3 3 2 3 2 2 8 13 14 15 10 2 3 7 10 13 14 13 13 13 14 12 11 14 14 9 11 15 16 18 20 14 10 7 5 6 6 5 4 3 3 3 3 3 4 5
4 3 3 3 1 4 6 7 8 8 8 8 7 6 11 14 12 8 7 6 8 10 7 5 9 13 13 12 10 8 9 10 8 7 8 7 6 3 0 1 1 1 3 2 2 2 3 4 6 8 14 18 12 2 4 6 5 7 11 13 14 15 15 16 18 20 18 12 12 15 16 17 20 19 14 11 9 8 7 6 3 2 2 3 3 4 5 6
4 3 2 1 1 3 3 3 7 10 10 7 6 8 10 13 14 10 7 6 7 10 10 9 13 15 15 13 10 8 9 9 9 9 9 8 8 6 4 3 1 1 3 2 2 1 3 5 4 4 8 15 15 8 7 7 4 4 7 9 11 15 18 19 19 20 20 17 15 16 20 21 21 19 12 9 10 9 6 4 3 3 4 5 5 6 6 6
4 3 2 1 0 1 1 1 5 8 9 7 6 6 7 11 13 10 8 8 8 9 13 15 15 14 14 14 12 11 11 10 10 11 10 9 7 5 5 4 2 1 1 3 1 1 2 5 4 4 4 11 15 14 9 7 7 8 7 7 10 14 18 18 16 15 16 17 18 20 22 21 19 17 12 7 6 5 6 7 6 6 6 6 7 7 7 7
4 1 1 2 2 4 3 1 4 5 6 7 7 7 7 9 10 7 6 7 7 8 12 17 17 11 11 14 14 15 15 13 14 13 10 11 10 7 6 5 5 5 3 3 2 2 3 3 1 4 5 10 12 14 13 10 7 8 10 13 16 17 15 14 13 14 16 18 19 19 16 16 17 14 13 10 6 7 10 11 8 8 9 9 10 11 10 9
9 2 1 1 3 5 4 2 4 6 6 7 8 8 8 7 8 7 5 4 8 10 8 13 15 10 9 15 16 15 14 12 13 10 5 7 8 6 5 5 7 8 7 5 3 3 5 3 2 4 5 9 9 8 8 7 5 7 13 18 20 17 14 12 13 18 20 17 15 14 12 15 18 15 15 15 10 9 12 10 9 12 14 14 15 16 14 11
Wind_Direction
158 155 143 121 115 113 108 115 135 149 170 178 179 180 179 179 177 176 174 171 170 167 171 172 181 196 238 297 28 13 14 68 152 137 133 120 108 105 89 82 70 57 67 83 164 174 149 93 104 132 127 73 11 343 88 27 14 247 199 196 207 181 184 178 182 180 111 170 163 166 186 198 182 163 169 172 205 211 190 214 209 215 230 220 108 112 150 159
172 167 148 136 127 122 120 124 140 152 172 178 179 182 185 184 181 182 177 175 177 174 175 178 192 199 245 268 54 11 12 135 141 110 107 131 118 103 91 85 67 61 77 95 158 180 171 119 111 134 127 84 355 345 171 348 343 241 147 213 216 161 140 169 181 164 8 275 156 159 183 211 202 156 162 206 194 182 226 218 202 230 220 192 173 161 159 165
188 177 160 160 146 134 135 130 131 137 152 161 167 176 184 186 184 184 181 181 182 182 181 187 198 207 244 270 25 349 116 145 139 95 116 132 118 106 94 83 72 69 75 93 133 151 151 140 137 133 93 80 30 340 171 4 329 201 205 224 196 107 90 98 181 141 20 322 158 152 154 220 215 137 164 215 208 188 229 227 204 229 222 189 172 167 166 172
190 178 175 173 159 149 135 127 118 114 124 148 162 171 177 182 186 186 184 186 188 189 189 194 199 205 230 284 346 64 126 160 158 111 140 133 119 110 94 81 73 68 72 101 113 113 125 121 112 89 84 104 50 318 111 15 303 147 250 251 75 75 134 113 189 116 37 316 167 137 141 198 151 140 194 200 217 222 232 232 225 238 228 172 161 165 170 177
183 177 183 177 160 157 141 138 133 124 109 126 164 170 178 184 187 186 185 189 192 192 195 201 201 201 203 207 287 150 179 183 149 125 149 140 125 109 89 75 64 63 74 114 107 112 124 108 96 76 69 112 106 163 90 8 315 119 16 351 66 240 94 101 183 144 158 342 140 145 163 177 127 183 215 205 225 234 238 231 233 251 274 128 160 167 170 181
182 179 184 175 161 161 161 162 146 139 118 176 174 168 186 187 188 187 187 189 192 195 198 204 200 193 188 167 99 192 221 206 101 146 155 144 129 108 84 70 60 60 49 122 128 126 123 106 126 115 86 91 57 100 86 358 301 144 114 110 125 324 41 92 136 156 200 181 164 170 161 137 160 209 209 221 235 236 60 47 314 311 36 104 161 165 174 187
183 186 185 178 173 164 168 176 161 167 192 195 171 160 175 171 178 184 184 188 190 193 194 201 199 191 188 163 104 93 166 33 46 162 154 145 133 108 81 65 54 53 35 130 138 132 123 137 133 129 105 101 96 92 77 336 280 262 126 136 152 1 4 39 67 152 207 215 162 121 151 164 202 218 90 234 242 235 99 76 357 341 52 167 170 176 188 191
185 191 190 187 180 161 171 192 170 180 197 189 168 151 141 140 147 157 172 182 183 188 190 194 190 185 187 179 144 101 110 62 159 162 151 146 134 107 77 60 50 58 104 102 109 149 149 128 134 178 110 93 154 117 125 177 98 47 115 136 141 72 4 59 126 163 194 249 94 145 184 191 225 245 306 247 247 232 166 131 270 302 187 200 199 195 195 193
179 184 191 197 180 160 174 176 163 184 170 166 162 143 131 132 134 140 157 166 172 179 181 185 181 180 182 166 155 170 142 38 181 162 150 147 126 96 74 68 66 97 110 81 74 157 181 168 155 203 127 100 167 123 262 227 89 56 106 134 133 116 90 115 159 147 183 179 166 203 183 145 351 345 263 248 250 121 143 193 185 227 220 217 213 207 200 197
125 158 202 196 178 176 185 137 131 210 133 146 158 151 141 138 137 141 150 152 156 161 171 181 167 168 174 162 181 182 129 83 172 163 152 145 124 100 83 83 84 97 97 73 67 81 209 181 152 170 119 106 155 109 316 293 90 79 107 115 99 108 120 152 167 121 179 148 192 229 183 39 48 270 251 237 22 52 196 206 187 226 233 229 221 217 213 209
100 29 226 206 200 212 192 114 236 343 82 111 168 163 141 138 147 149 153 151 151 155 162 169 166 162 146 160 203 171 110 109 159 160 153 141 127 116 95 96 99 98 96 74 67 73 91 135 139 150 123 132 140 95 38 70 103 82 134 131 79 78 120 128 158 100 285 145 170 261 231 263 108 234 244 124 70 113 217 218 208 229 237 236 232 227 224 225
165 217 250 220 212 222 183 169 253 345 30 32 7 81 115 129 151 157 161 156 154 158 157 155 170 164 124 128 158 130 121 117 144 154 153 142 130 123 103 102 102 93 105 90 82 100 111 131 135 94 60 169 152 102 109 123 126 97 160 160 95 146 154 122 102 42 303 138 133 272 260 239 200 230 237 107 113 138 230 240 226 232 239 237 234 237 233 231
192 210 249 227 220 230 211 234 289 9 37 43 30 86 113 120 140 160 166 161 159 157 157 156 156 156 152 140 111 132 135 122 137 148 150 144 130 118 106 105 101 94 108 111 111 116 124 140 115 89 73 144 123 116 133 120 290 129 104 329 131 217 188 113 69 47 234 136 120 244 267 242 205 230 228 99 138 189 249 246 234 235 239 238 231 237 240 231
198 204 221 229 223 217 228 276 302 3 28 30 112 133 134 123 133 157 160 157 161 158 160 160 154 153 150 121 134 153 153 137 143 145 145 143 129 113 107 107 104 100 98 102 108 108 110 112 104 104 70 25 105 152 130 93 357 107 125 348 178 245 150 103 85 179 201 151 99 229 257 266 231 228 148 79 183 224 258 255 244 240 234 239 235 237 244 235
199 202 209 217 197 144 107 317 337 8 15 29 116 137 132 132 133 142 153 152 152 155 158 159 160 157 142 139 157 164 158 154 157 157 155 146 130 114 113 114 107 100 95 95 98 94 90 96 94 97 73 9 152 156 115 90 66 51 237 177 119 254 169 99 95 223 227 91 169 223 248 269 268 264 76 47 184 192 254 260 256 251 242 239 238 241 246 244
198 198 205 209 203 183 154 331 344 21 15 49 129 140 134 136 137 136 141 143 145 147 149 157 164 167 172 143 140 156 162 164 167 171 166 155 143 132 127 117 104 97 97 94 91 80 61 66 62 21 75 179 177 147 125 153 140 60 273 213 145 225 274 56 99 43 341 60 208 232 262 275 272 327 66 78 161 180 254 267 264 255 247 243 241 241 245 248
195 200 205 208 224 232 259 289 275 26 23 138 144 138 135 135 136 135 131 132 134 131 130 143 149 166 196 128 150 174 159 160 164 166 168 167 160 146 134 112 97 100 99 92 80 58 32 50 116 268 64 121 165 160 172 208 209 158 237 250 205 226 265 254 129 92 37 265 226 226 251 259 259 277 264 191 156 206 258 266 269 264 253 244 239 241 243 245
183 197 206 214 233 243 266 283 286 292 52 151 148 136 131 129 126 130 131 128 116 102 109 121 148 206 210 159 171 150 125 142 148 151 160 160 158 152 140 116 121 118 106 87 46 19 13 31 241 161 115 143 170 193 203 199 191 162 180 208 204 216 230 252 242 132 161 222 234 227 242 257 260 261 264 249 190 227 262 265 269 268 261 254 245 243 242 238
182 188 198 214 226 232 257 287 310 313 204 157 146 128 116 115 118 124 127 133 130 124 148 168 172 196 182 148 118 104 116 132 140 143 145 146 151 144 116 106 119 113 131 168 56 29 355 129 159 181 189 196 190 203 206 98 107 132 154 187 192 235 244 240 155 115 205 238 242 239 248 262 264 262 267 262 203 220 261 263 264 262 257 255 248 246 241 237
193 190 195 204 213 225 241 278 310 320 292 161 147 131 120 126 120 125 147 253 218 101 23 140 151 90 80 103 120 123 117 113 123 147 148 148 145 128 93 74 102 101 135 196 108 62 280 196 192 221 217 192 188 177 93 87 91 107 127 166 182 254 270 218 106 84 221 256 253 242 254 268 272 270 269 266 236 234 253 252 254 252 247 247 246 247 243 239
213 202 199 196 193 211 229 266 303 318 322 195 172 169 182 168 177 143 166 234 208 64 15 34 41 65 87 111 145 144 123 93 72 152 157 155 152 152 143 93 160 160 134 101 106 107 234 215 221 227 120 99 145 124 108 110 92 109 168 214 198 235 265 277 92 112 162 237 262 246 259 268 271 274 272 266 255 255 253 247 250 250 245 243 243 247 246 244
229 218 208 198 182 197 217 235 275 294 295 226 198 229 287 202 162 113 124 216 179 99 23 47 30 168 76 113 169 168 175 126 118 184 173 158 172 189 161 156 185 178 125 139 148 158 203 229 228 167 96 88 99 127 140 127 115 139 157 207 238 236 272 293 89 105 172 222 269 277 271 268 269 275 273 264 255 257 256 250 253 258 256 251 245 245 245 247
236 227 216 205 190 195 202 206 254 281 273 233 221 235 256 167 140 118 117 186 167 118 171 200 226 191 137 197 190 179 197 166 155 193 190 170 169 190 156 169 185 143 150 186 191 190 197 239 218 130 130 122 99 135 149 126 166 197 177 202 235 171 273 262 113 116 174 216 298 300 284 269 261 264 265 261 254 258 261 258 258 255 253 253 251 250 249 249
236 231 222 208 195 194 188 196 245 266 253 248 241 229 200 164 151 143 137 44 258 197 186 217 241 198 175 165 178 179 201 208 170 179 185 179 149 144 173 165 154 149 184 197 203 219 210 58 119 141 161 154 127 152 169 180 207 206 209 218 229 219 223 248 345 346 207 193 310 293 286 266 236 243 256 260 255 262 261 261 261 248 243 249 255 257 252 250
230 231 225 208 192 189 186 196 230 241 242 259 242 217 191 175 161 157 151 20 240 183 68 211 207 206 186 141 160 169 106 207 233 166 174 180 145 139 159 103 176 192 181 167 201 245 236 111 132 143 162 163 152 173 186 194 214 224 215 218 230 238 227 219 0 336 276 240 133 296 296 276 191 224 253 260 266 265 253 244 259 253 239 235 245 253 247 244
223 227 223 209 190 182 183 208 224 224 232 254 230 195 184 177 156 161 144 18 251 183 140 178 175 187 175 146 149 140 120 212 319 97 159 175 143 129 153 126 305 205 158 145 197 254 211 131 140 142 153 163 173 199 194 191 216 238 213 218 226 230 207 203 209 289 285 299 192 202 290 285 242 221 242 251 263 268 262 252 262 261 251 235 236 247 241 240
217 221 220 208 192 183 179 200 189 181 221 251 210 183 180 175 159 172 164 297 259 168 129 178 202 170 163 158 160 152 196 187 99 107 154 165 149 79 185 168 148 167 147 147 219 223 151 160 170 150 148 164 190 206 187 189 207 223 52 189 192 180 192 198 187 226 282 326 269 174 194 279 274 225 229 241 257 269 268 262 263 261 258 252 249 256 252 249
216 219 219 209 196 193 201 199 173 174 224 231 184 178 176 172 168 167 188 236 263 119 119 164 118 124 129 136 145 125 310 80 124 161 40 84 152 42 209 187 175 170 163 184 217 215 152 185 186 172 172 190 197 184 170 183 199 358 55 104 136 148 167 154 171 227 316 328 278 171 157 261 277 202 180 221 241 262 264 258 261 263 264 265 270 280 287 278
217 216 220 214 203 202 212 211 183 183 220 195 176 176 169 174 192 90 171 220 207 101 103 126 129 108 113 137 119 70 57 23 67 166 68 103 113 38 199 190 161 151 160 224 230 24 43 226 203 181 191 198 145 39 161 187 179 132 138 101 91 87 81 101 206 198 109 282 260 165 170 250 283 200 155 171 227 249 258 256 261 273 285 297 328 329 321 317
216 214 221 214 200 198 203 211 208 194 196 189 174 167 159 169 201 161 185 223 186 105 76 135 167 149 147 153 158 21 99 43 61 110 102 131 61 29 60 116 92 130 150 289 274 68 65 17 307 218 197 148 108 63 17 101 120 143 146 105 91 86 72 85 40 80 226 262 238 164 182 225 283 223 170 174 199 228 245 257 264 278 287 332 65 33 346 315
214 214 219 209 197 194 193 207 208 197 186 175 161 154 157 128 236 185 190 245 57 137 136 147 149 147 158 162 165 170 134 67 156 159 152 160 121 102 155 152 110 121 198 255 228 130 120 183 197 186 88 110 111 85 43 54 116 152 148 128 130 135 135 162 157 140 231 249 237 171 194 218 249 234 190 238 290 265 240 246 264 273 267 141 117 112 2 310
214 211 212 208 202 198 199 210 201 192 171 155 150 142 159 141 230 218 193 98 150 183 160 150 171 168 168 163 151 161 150 122 175 177 160 164 174 175 188 187 165 166 220 221 199 126 193 206 142 83 270 184 141 105 74 74 193 215 163 162 197 215 197 225 210 181 236 241 121 137 186 241 251 253 270 275 270 253 235 236 258 270 270 233 138 147 193 263
211 206 204 208 207 203 207 214 196 187 170 151 146 102 114 174 207 213 198 167 164 189 118 106 138 165 164 162 162 158 140 142 170 179 164 163 191 201 225 234 186 206 230 191 177 165 202 234 145 161 200 214 186 161 151 177 193 195 182 176 194 198 211 232 208 198 265 257 112 140 162 246 268 267 246 246 248 247 238 237 247 261 269 262 163 150 190 219
209 205 202 209 210 208 209 210 200 188 167 146 140 144 174 201 202 203 206 190 52 21 59 105 127 144 168 177 175 165 166 185 166 161 161 165 195 211 222 238 220 251 34 160 184 190 213 248 180 173 159 173 195 202 157 143 169 192 189 179 201 197 210 230 214 231 269 301 133 159 172 228 251 346 241 245 260 265 258 251 253 264 267 264 222 192 204 217
208 205 205 207 210 212 210 207 205 187 165 147 155 170 189 210 195 207 210 170 96 93 57 95 128 143 185 228 319 187 202 219 167 158 173 178 196 205 201 208 202 193 164 192 199 170 222 265 165 149 132 167 183 205 96 115 158 190 98 205 229 221 196 246 306 214 325 329 236 193 229 241 235 302 266 247 270 255 248 260 266 264 261 263 257 227 195 205
202 205 210 207 210 212 208 205 199 182 165 149 176 182 199 213 191 197 189 149 151 138 117 120 135 152 189 194 193 201 236 68 160 172 201 201 231 219 207 211 194 190 190 191 172 146 212 289 92 68 308 176 181 161 121 153 187 157 167 202 222 338 82 174 253 85 108 266 256 211 248 266 279 274 241 215 235 239 238 249 245 249 253 257 261 238 157 193
201 208 209 207 212 212 207 201 189 179 168 157 188 194 205 216 195 153 160 137 133 140 141 163 185 180 184 187 194 192 186 140 164 190 190 182 239 217 207 231 191 192 205 206 219 207 206 261 124 151 197 182 340 34 94 5 14 139 185 191 138 28 337 212 237 221 198 247 261 223 249 268 273 270 214 171 230 241 243 242 236 243 246 245 252 219 153 204
205 217 218 214 212 210 208 197 182 173 169 174 193 207 202 207 206 172 156 108 129 165 184 197 194 186 185 192 187 176 182 175 169 193 188 172 224 200 183 201 194 197 208 210 243 240 200 230 205 90 212 104 43 204 152 49 358 102 195 165 133 219 207 185 216 228 225 240 257 246 260 266 238 239 226 203 221 231 237 236 232 239 239 238 241 192 184 208
207 221 241 220 211 208 203 192 180 168 173 186 199 220 209 212 223 176 155 125 113 179 201 211 206 197 195 191 164 162 186 188 167 181 194 183 211 191 176 189 199 198 198 189 196 179 169 229 224 69 307 109 132 211 197 169 133 30 177 173 203 256 215 186 186 216 233 236 258 278 283 264 225 206 216 226 225 223 227 227 227 235 238 241 236 185 185 202
208 229 251 204 203 201 190 182 178 169 186 194 203 199 188 202 209 189 179 176 177 200 207 220 216 191 191 181 150 167 196 205 179 187 203 186 199 206 183 185 171 174 187 185 198 178 150 224 224 104 305 208 183 209 202 180 168 176 193 188 186 182 308 260 203 145 247 236 249 279 278 269 241 162 200 223 226 223 224 226 229 237 244 247 242 200 190 196
209 239 236 183 190 185 174 171 181 193 199 207 206 190 179 185 179 171 177 196 210 290 209 221 220 211 187 168 194 182 190 209 193 200 216 198 208 221 191 189 162 134 154 180 202 205 178 205 202 157 190 207 199 226 229 199 178 184 194 193 193 178 159 212 209 162 267 247 227 240 270 272 263 139 201 220 220 223 222 229 233 236 243 246 236 227 221 209
212 228 212 174 181 173 162 176 196 177 214 215 198 187 167 159 169 170 168 184 201 171 98 206 215 217 212 207 213 177 158 213 204 203 228 223 220 223 215 212 163 146 146 167 202 199 145 159 209 197 194 205 178 39 349 300 317 251 235 203 199 185 179 205 208 178 180 217 249 302 271 271 265 116 204 228 233 250 206 229 242 243 251 264 245 219 230 253
215 221 193 176 181 172 161 205 195 185 226 204 162 162 162 162 168 168 175 185 182 164 172 186 187 201 210 209 205 183 171 211 217 211 241 267 242 233 106 124 143 154 161 159 188 171 101 140 215 220 202 119 61 71 67 24 23 251 255 179 195 207 205 214 218 182 177 181 199 205 241 259 267 105 222 295 311 275 219 213 237 253 264 271 267 229 183 243
213 224 353 187 186 180 177 205 192 202 216 200 184 190 185 184 173 169 182 191 183 160 180 203 195 190 203 183 181 183 179 192 224 226 234 251 243 347 99 152 161 178 196 184 166 171 172 193 203 213 223 202 184 194 195 165 181 225 224 192 208 214 205 175 41 220 208 200 206 212 238 252 259 72 260 249 258 269 259 208 222 246 259 248 262 267 214 196
191 202 314 207 194 190 203 216 193 209 212 208 210 203 196 197 190 190 190 185 181 175 185 206 197 181 178 143 125 145 181 202 234 232 228 244 256 7 5 191 186 198 211 69 81 172 188 194 191 199 216 219 212 210 207 175 160 213 222 198 205 205 193 187 190 211 224 219 214 218 245 252 248 86 236 233 223 269 265 228 219 236 251 252 248 261 273 251
187 197 201 212 204 207 240 250 218 221 214 210 216 211 206 207 198 199 199 192 190 189 194 201 181 176 177 175 181 195 205 219 237 237 233 246 262 344 358 270 226 259 333 75 99 152 182 234 214 213 220 228 230 235 149 139 152 201 216 192 192 199 195 198 213 218 225 233 233 228 238 254 258 225 209 225 226 247 246 229 229 236 237 247 253 243 252 258
218 215 188 180 198 218 235 245 227 223 212 203 203 210 214 213 203 181 200 205 196 193 206 210 180 185 188 188 202 211 207 213 221 234 243 244 258 303 45 84 293 312 353 51 104 137 133 237 227 226 238 246 250 249 143 159 173 203 213 196 190 198 195 197 216 225 223 229 242 234 230 249 261 249 226 221 224 240 249 241 240 254 243 228 236 241 242 241
227 234 199 189 197 204 221 228 216 215 216 203 199 211 215 215 212 201 193 203 200 194 204 216 204 205 199 192 202 213 207 210 214 219 231 234 233 247 316 128 194 90 64 21 321 124 157 236 224 220 243 252 257 231 164 198 201 200 211 205 195 192 192 200 217 226 224 223 241 248 238 241 256 256 239 227 230 231 234 241 245 278 278 240 211 218 236 240
223 252 253 270 251 196 211 214 198 210 220 211 210 222 215 213 215 206 178 183 205 203 202 212 212 209 208 204 206 212 206 202 210 213 215 220 213 211 231 226 186 60 91 133 272 123 161 232 217 195 248 256 256 245 200 205 233 226 218 212 202 197 196 204 217 223 225 230 241 254 252 248 253 257 251 241 241 229 212 219 231 232 244 237 216 216 227 230
209 232 212 155 188 179 116 107 163 195 213 206 209 223 220 219 217 201 180 186 196 196 201 215 217 207 208 213 212 219 216 203 211 215 204 211 212 196 222 220 155 62 110 150 214 240 193 224 199 157 241 256 255 253 236 211 228 243 235 216 214 214 209 211 222 224 227 236 241 246 254 257 255 258 264 260 233 207 203 212 218 228 236 239 235 226 219 225
211 352 119 156 199 193 185 155 154 183 203 196 203 214 215 221 217 202 201 205 202 195 195 210 219 212 211 219 217 222 223 212 218 222 201 202 209 192 205 207 153 143 161 158 161 173 191 232 150 147 222 247 243 245 247 239 231 245 248 232 221 220 217 216 220 224 224 230 237 242 249 257 256 257 263 257 215 193 213 214 213 228 230 230 239 239 230 229
209 274 327 190 226 209 187 165 176 205 215 196 198 210 210 213 210 204 217 226 222 226 212 208 219 218 214 222 223 226 231 230 236 245 216 203 217 203 200 198 163 159 167 163 155 162 170 194 213 172 211 250 245 229 239 246 233 234 240 234 224 221 225 226 224 228 228 227 233 237 233 244 255 257 256 252 231 211 221 214 209 228 232 230 238 244 244 243